Brookings, OR

7:40 PM PDT on June 19, 2018 (GMT -0700)
Brookings State

Weather History for KBOK - November, 2017

Change the Weather History Date:

Tuesday, November 14, 2017

  Actual Average Record
Temperature  
Mean Temperature 50 °F -  
Max Temperature 55 °F 58 °F 74 °F (2008)
Min Temperature 46 °F 44 °F 30 °F (1955)
Degree Days  
Heating Degree Days 14    
Moisture  
Dew Point 44 °F    
Average Humidity 79    
Maximum Humidity 93    
Minimum Humidity 60    
Precipitation  
Precipitation 0.02 in - - ()
Sea Level Pressure  
Sea Level Pressure 30.20 in    
Wind  
Wind Speed 8 mph (SE)    
Max Wind Speed 16 mph    
Max Gust Speed 25 mph    
Visibility 10 miles    
Events Rain    
Averages and records for this station are not official NWS values.
T = Trace of Precipitation, MM = Missing Value Source: NWS Daily Summary

Daily Weather History Graph

Daily Weather History Graph

Search for Another Location

Airport or City:

Astronomy

Nov. 14, 2017 Rise Set
Actual Time 7:06 AM PST 4:56 PM PST
Civil Twilight 6:36 AM PST 5:26 PM PST
Nautical Twilight 6:02 AM PST 6:00 PM PST
Astronomical Twilight 5:29 AM PST 6:33 PM PST
Moon 3:07 AM PST (11/14) 3:28 PM PST (11/14)
Length of Visible Light 10h 50m
Length of Day
9h 50m
Waning Crescent, 13% of the Moon is Illuminated
Nov 14
Waning Crescent
Nov 18
New
Nov 26
First Quarter
Dec 3
Full
Dec 9
Last Quarter

Hourly Weather History & Observations

Time (PST) Temp. Windchill Dew Point Humidity Pressure Visibility Wind Dir Wind Speed Gust Speed Precip Events Conditions
12:56 AM 46.9 °F - 43.0 °F 86% 30.27 in 10.0 mi SE 4.6 mph - N/A   Mostly Cloudy
1:56 AM 48.0 °F - 44.1 °F 86% 30.27 in 9.0 mi SE 8.1 mph - 0.00 in Rain Light Rain
2:26 AM 46.4 °F 44.3 °F 44.6 °F 93% 30.22 in 10.0 mi Variable 4.6 mph - 0.00 in   Overcast
2:56 AM 48.0 °F - 44.1 °F 86% 30.27 in 10.0 mi Variable 5.8 mph - 0.00 in   Overcast
3:56 AM 48.0 °F - 44.1 °F 86% 30.26 in 10.0 mi Variable 6.9 mph - 0.01 in   Mostly Cloudy
4:56 AM 46.9 °F - 43.0 °F 86% 30.28 in 10.0 mi ESE 4.6 mph - N/A   Mostly Cloudy
5:24 AM 48.2 °F - 42.8 °F 82% 30.23 in 10.0 mi SE 4.6 mph - N/A   Overcast
5:44 AM 46.4 °F 44.3 °F 42.8 °F 87% 30.23 in 10.0 mi SE 4.6 mph - N/A   Mostly Cloudy
5:56 AM 46.9 °F - 43.0 °F 86% 30.27 in 10.0 mi SE 5.8 mph - N/A   Mostly Cloudy
6:56 AM 48.0 °F - 42.1 °F 80% 30.27 in 10.0 mi ESE 5.8 mph - N/A   Mostly Cloudy
7:56 AM 48.9 °F - 42.1 °F 77% 30.27 in 10.0 mi SE 5.8 mph - N/A   Overcast
8:56 AM 52.0 °F - 42.1 °F 69% 30.28 in 10.0 mi SSE 10.4 mph - N/A   Mostly Cloudy
9:56 AM 53.1 °F - 41.0 °F 64% 30.27 in 10.0 mi SSE 12.7 mph 19.6 mph N/A   Overcast
10:56 AM 54.0 °F - 41.0 °F 62% 30.27 in 2.5 mi SSE 12.7 mph 20.7 mph N/A   Haze
11:14 AM 55.4 °F - 42.8 °F 63% 30.21 in 10.0 mi SSE 10.4 mph 17.3 mph N/A   Clear
11:56 AM 55.9 °F - 42.1 °F 60% 30.24 in 10.0 mi SSE 12.7 mph - N/A   Overcast
12:56 PM 54.0 °F - 43.0 °F 66% 30.23 in 10.0 mi South 10.4 mph 18.4 mph N/A   Overcast
1:56 PM 53.1 °F - 46.0 °F 77% 30.20 in 10.0 mi SSE 11.5 mph 17.3 mph N/A   Overcast
2:56 PM 53.1 °F - 45.0 °F 74% 30.19 in 10.0 mi SSE 11.5 mph 19.6 mph N/A   Overcast
3:56 PM 53.1 °F - 46.0 °F 77% 30.17 in 10.0 mi SSE 10.4 mph - N/A   Overcast
4:56 PM 52.0 °F - 46.0 °F 80% 30.16 in 10.0 mi SSE 10.4 mph - N/A   Overcast
5:56 PM 52.0 °F - 46.0 °F 80% 30.13 in 10.0 mi SE 9.2 mph - N/A   Overcast
6:56 PM 52.0 °F - 45.0 °F 77% 30.13 in 10.0 mi SSE 10.4 mph - N/A   Overcast
7:56 PM 52.0 °F - 45.0 °F 77% 30.11 in 10.0 mi SE 12.7 mph - N/A   Overcast
8:56 PM 52.0 °F - 45.0 °F 77% 30.11 in 10.0 mi SSE 11.5 mph - N/A   Overcast
9:56 PM 52.0 °F - 45.0 °F 77% 30.10 in 10.0 mi SSE 10.4 mph - 0.00 in   Overcast
10:47 PM 50.0 °F - 46.4 °F 87% 30.04 in 7.0 mi SSE 16.1 mph 24.2 mph 0.01 in Rain Light Rain
10:56 PM 48.9 °F - 46.9 °F 93% 30.08 in 10.0 mi SE 11.5 mph - 0.01 in Rain Light Rain
11:10 PM 48.2 °F - 46.4 °F 93% 30.03 in 10.0 mi SE 8.1 mph - 0.00 in   Overcast
11:56 PM 51.1 °F - 45.0 °F 80% 30.07 in 10.0 mi SSE 16.1 mph 25.3 mph 0.00 in Rain Light Rain